User: anonymous   Login
Location: Alfortville
(48.8058°N, 2.4204°E)
Time: 09:24:29
(UTC+00:00)
Language:

CUTE-I - Orbit

View from above orbital plane
View from above orbital plane
View from above satellite
View from above satellite

Ground track
Ground track

The orbit data is extracted from the following two-line orbital elements,

1 27844U 03031E   24063.56344586  .00000505  00000-0  24308-3 0  9998
2 27844  98.6804  72.0638 0010936  91.4673 268.7758 14.23101835 72760
Epoch (UTC): 03 March 2024 13:31:21
Eccentricity: 0.0010936
inclination: 98.6804°
perigee height: 807 km
apogee height: 823 km
right ascension of ascending node: 72.0638°
argument of perigee: 91.4673°
revolutions per day: 14.23101835
mean anomaly at epoch: 268.7758°
orbit number at epoch: 7276

The dashed part of the orbit path shows where the satellite is in the earth's shadow,  

DLR